Wetbulb
60.05 59.87 60.02 59.99 60.20 60.33 60.52 60.52 60.63 60.50 60.42 60.46 60.47 60.88 61.30 61.57 61.19 59.15 51.83 59.61 62.12 73.08 75.08 65.83 63.97 65.76 64.52 63.93 66.59 67.60 55.65 53.47 57.18 58.68 60.70 66.18 64.11 67.03 69.33 66.57 67.31 68.08 66.38 67.22 68.79
59.59 59.57 59.67 59.71 59.82 59.96 60.15 60.36 60.58 60.58 60.58 60.10 60.22 60.64 61.41 61.84 58.26 54.52 63.86 71.37 73.80 75.33 63.11 59.72 59.06 60.58 57.78 59.95 60.96 60.87 55.57 57.19 62.60 62.44 62.79 65.59 64.75 65.06 64.28 64.63 64.77 65.81 67.67 68.95 69.09
59.26 59.26 59.34 59.52 59.61 59.67 59.84 60.14 60.07 60.13 59.79 59.85 60.05 60.58 61.39 61.12 55.58 57.32 72.48 70.77 75.61 74.88 61.82 59.49 59.29 58.09 54.86 55.16 60.67 62.30 57.20 61.02 64.23 65.11 66.88 64.78 64.12 66.56 62.73 60.11 64.33 64.67 66.00 67.62 67.77
59.24 59.08 59.13 59.18 59.34 59.49 59.61 59.69 59.62 59.51 59.54 59.67 59.88 60.56 61.55 58.08 50.51 59.37 73.92 73.86 75.62 67.31 60.07 59.01 58.71 56.17 52.56 51.77 63.75 60.07 62.91 63.60 66.17 66.80 65.50 65.02 65.28 63.28 64.22 63.59 67.09 67.96 68.17 67.68 67.04
58.90 58.67 58.75 58.75 58.79 59.03 59.23 58.98 58.86 58.67 59.11 59.41 59.98 60.70 58.88 53.63 53.39 63.04 74.33 74.54 67.50 59.30 57.66 58.29 57.24 55.89 51.41 54.62 63.26 61.31 64.06 62.72 63.68 63.52 65.45 65.91 64.26 63.42 62.75 66.18 67.51 67.65 68.30 67.29 67.07
58.64 58.77 58.76 58.57 58.60 58.90 58.64 58.35 58.02 58.41 58.90 59.42 60.03 60.49 54.60 47.18 59.72 63.44 62.79 62.61 59.38 56.11 57.73 58.95 58.56 58.97 54.93 53.20 57.61 63.85 62.70 61.49 63.31 62.56 64.77 63.52 62.98 63.30 63.19 65.94 65.35 65.91 65.26 66.87 67.54
58.57 58.50 58.64 58.68 58.36 58.34 58.25 57.66 57.60 58.13 59.41 59.54 60.22 60.82 55.66 52.22 61.18 61.76 57.49 55.69 56.43 57.06 56.48 59.24 60.27 54.97 53.80 52.56 64.92 62.83 58.85 58.40 59.47 62.02 60.18 64.68 60.82 60.77 64.26 64.62 63.45 63.71 64.71 66.53 68.15
58.30 58.30 58.46 58.24 58.03 57.86 57.72 57.14 57.29 58.66 60.70 60.20 60.90 57.63 49.93 58.98 58.86 57.58 59.07 57.70 57.81 56.61 57.22 59.26 59.63 55.37 51.99 54.94 55.50 59.63 57.55 51.84 58.83 61.27 62.23 62.49 53.36 62.05 64.49 62.81 61.75 62.75 64.64 67.05 66.29
57.87 57.93 57.81 57.66 57.58 57.25 56.63 56.75 57.83 61.15 62.26 62.01 54.74 53.48 49.84 62.53 57.57 57.44 57.95 57.79 58.26 57.01 57.43 61.75 57.52 51.90 52.93 48.76 46.54 52.76 49.01 52.45 56.35 61.69 63.10 60.60 55.87 61.74 63.76 62.65 60.96 61.82 62.77 65.24 64.72
57.44 57.38 57.28 57.15 56.77 56.26 55.68 56.60 58.18 59.50 59.46 61.46 60.37 50.45 54.41 55.16 54.95 56.39 56.91 59.24 57.84 57.20 56.57 54.38 51.35 47.87 46.48 45.08 40.81 45.70 49.18 54.03 54.55 59.20 60.80 59.18 58.31 61.27 63.37 63.56 62.30 61.35 62.59 63.92 63.18
57.28 56.89 56.85 56.59 56.24 55.24 52.85 53.00 53.79 52.22 54.61 50.47 51.02 53.17 56.33 59.21 58.44 55.52 57.36 56.54 54.56 52.83 49.04 51.25 46.65 44.15 47.66 48.25 50.11 49.13 48.53 49.58 58.23 61.29 59.41 58.11 58.27 59.41 62.62 62.90 61.62 60.26 61.28 63.30 63.61
56.77 56.53 56.34 56.10 55.48 54.30 51.68 50.23 55.26 54.10 49.07 55.98 55.78 55.16 57.20 56.12 53.87 54.73 56.69 52.58 50.73 48.47 49.23 47.02 44.36 50.21 52.07 51.87 50.11 48.52 47.14 48.07 55.90 61.45 58.67 57.25 57.23 60.19 61.82 62.01 62.03 61.46 61.21 62.42 63.20
56.43 56.18 55.82 54.50 53.81 51.46 51.28 54.56 57.76 58.23 48.36 52.13 55.23 53.92 54.76 55.90 53.57 53.83 54.26 51.64 51.32 48.40 48.28 45.23 49.12 52.88 51.30 50.34 49.29 48.98 44.67 47.66 48.85 55.97 59.79 53.93 51.71 56.65 59.78 60.45 61.80 61.68 63.23 63.01 63.23
56.19 55.96 55.15 53.47 51.81 53.19 54.31 57.87 57.57 58.44 43.04 48.59 49.87 55.16 57.50 57.48 52.54 55.29 54.55 52.88 51.19 49.46 49.11 47.38 52.21 51.55 50.73 48.78 48.31 40.66 50.35 50.79 51.05 46.92 42.95 49.87 40.20 52.36 54.58 55.90 58.59 58.39 60.41 62.22 62.88
55.88 55.34 53.99 52.95 47.99 51.32 58.79 55.30 56.83 53.17 37.11 53.70 49.64 58.47 56.65 52.76 51.66 53.38 54.72 53.75 50.50 50.83 48.75 47.34 49.84 49.56 48.76 50.15 51.23 47.25 51.56 50.88 51.67 46.57 43.31 45.82 43.57 46.05 53.61 53.23 56.52 58.94 61.64 63.55 63.48
54.95 54.36 53.37 50.46 49.17 52.84 55.75 55.47 54.42 43.87 39.19 50.22 52.34 52.59 51.59 50.93 51.98 54.36 53.76 53.50 54.55 50.46 49.29 49.68 53.30 51.53 50.43 53.28 51.80 51.90 49.07 47.13 46.04 43.17 38.36 44.53 45.56 44.75 50.44 54.35 56.11 59.19 62.40 63.01 64.36
53.44 52.42 51.07 54.90 54.60 57.47 57.68 54.66 43.65 38.98 51.73 49.09 47.34 49.06 48.82 46.85 49.70 51.34 49.66 47.98 47.04 42.54 42.53 48.61 50.40 52.19 53.12 49.15 52.76 47.30 40.67 35.85 35.93 36.45 37.47 42.56 44.55 46.44 53.93 56.98 58.86 58.48 60.05 62.86 63.39
51.71 50.82 51.04 54.34 54.97 57.17 55.84 49.05 38.98 49.32 48.79 51.20 51.15 49.55 46.93 47.58 47.03 49.10 47.65 45.65 48.74 46.79 44.00 42.19 43.33 48.73 52.41 50.00 48.98 44.60 41.59 36.23 32.21 33.66 38.51 44.22 42.46 47.40 56.14 59.26 59.16 59.95 60.15 61.44 61.97
51.06 49.97 52.23 56.72 56.44 56.40 52.25 42.85 43.38 47.73 52.19 50.52 50.46 47.59 45.57 49.95 50.06 47.08 46.18 46.37 48.90 49.82 45.75 41.62 44.10 53.03 52.23 52.73 49.19 44.80 41.29 43.19 37.63 37.41 36.63 40.21 46.26 53.44 56.37 56.25 58.58 58.58 60.64 62.68 62.86
50.36 53.54 56.23 61.20 58.69 55.32 49.20 44.40 48.01 53.80 54.11 51.36 46.03 49.01 45.03 47.54 48.20 47.41 46.36 48.71 48.76 51.77 49.95 46.23 42.96 49.69 52.27 50.84 48.67 47.09 46.89 39.92 36.27 33.99 33.26 39.04 43.99 45.66 52.69 55.38 57.67 58.22 59.41 58.53 60.25
53.58 54.21 59.22 61.25 58.10 52.12 45.28 46.05 52.20 56.19 54.76 50.51 48.45 47.09 47.31 47.08 47.22 47.22 47.20 52.11 55.16 53.19 51.61 46.26 45.13 45.76 48.32 45.22 45.08 43.81 41.28 40.52 38.77 38.22 34.99 33.89 39.65 51.94 54.35 56.49 57.85 58.92 60.67 58.85 60.93
51.51 51.89 59.01 59.08 49.79 48.11 46.40 51.26 53.25 54.19 54.17 52.73 52.13 50.53 48.54 49.39 47.54 48.63 48.86 51.20 56.55 54.14 48.96 48.63 43.80 41.09 45.94 50.31 49.86 45.66 43.74 39.77 36.42 35.78 37.23 37.79 39.81 51.27 55.71 57.41 59.78 60.27 60.26 60.57 61.34
48.54 51.66 58.52 57.01 45.42 46.44 49.05 50.76 50.38 49.68 51.76 52.13 51.14 51.76 50.76 47.64 45.14 48.58 51.01 54.74 55.38 54.77 52.28 51.52 42.38 37.70 42.36 46.66 48.31 46.65 47.84 41.84 41.44 36.77 36.83 35.15 39.10 53.18 55.48 56.38 58.21 58.61 58.89 59.10 59.78
50.93 46.74 49.26 50.85 48.73 45.55 44.71 46.29 46.97 52.35 51.33 51.51 49.70 49.71 47.22 45.03 45.65 46.64 47.11 51.68 53.01 54.32 60.71 53.82 43.47 41.62 37.21 41.49 45.64 45.05 47.70 47.06 43.67 38.26 38.16 39.28 42.13 46.41 53.68 55.52 56.53 56.90 58.49 57.54 58.56
49.11 45.53 47.85 43.59 45.63 46.13 44.77 46.59 47.49 46.93 49.42 49.26 47.54 47.92 45.06 40.70 43.46 43.46 46.47 46.77 50.32 55.33 51.26 48.73 43.34 44.38 46.66 49.91 51.11 49.57 49.49 49.47 44.46 43.63 40.79 45.60 43.67 47.06 51.51 55.96 57.45 58.36 58.25 57.21 58.94
45.32 44.79 46.40 45.51 46.98 46.23 44.82 44.42 47.20 47.81 47.20 45.57 45.81 47.92 46.40 40.74 43.09 41.93 42.33 41.41 43.20 46.90 45.53 47.99 41.72 44.90 44.12 50.63 50.59 48.60 50.12 50.61 50.08 49.28 47.65 49.00 45.99 50.92 53.69 57.94 58.17 58.93 58.33 58.18 60.56
50.83 50.55 47.73 45.67 45.33 43.67 44.10 47.30 48.16 48.25 48.64 50.21 49.13 46.52 45.17 46.88 48.57 45.44 45.11 45.09 44.66 42.39 42.59 42.02 42.45 41.27 37.04 47.92 48.40 45.07 48.17 48.90 49.58 51.16 50.07 46.34 51.11 52.85 53.37 57.02 58.63 58.26 59.37 60.72 62.86
MSLP
1017.57 1017.33 1017.03 1016.72 1016.42 1016.14 1015.83 1015.53 1015.29 1015.10 1014.88 1014.61 1014.34 1014.08 1013.77 1013.37 1012.55 1012.47 1011.45 1009.18 1008.95 1008.67 1008.93 1008.74 1008.56 1008.66 1008.87 1008.98 1009.14 1009.16 1010.56 1011.01 1011.12 1010.56 1009.89 1009.14 1009.02 1008.93 1009.15 1009.20 1009.65 1009.75 1010.21 1011.11 1011.53
1017.54 1017.29 1017.01 1016.71 1016.36 1016.07 1015.81 1015.50 1015.20 1014.95 1014.77 1014.57 1014.34 1014.02 1013.72 1013.37 1012.79 1011.29 1008.32 1008.16 1008.26 1008.58 1008.98 1008.76 1008.52 1008.79 1009.05 1008.47 1008.39 1008.88 1010.09 1010.32 1009.99 1009.80 1009.28 1009.20 1009.35 1009.58 1010.10 1010.07 1010.50 1010.74 1011.28 1011.46 1011.66
1017.53 1017.24 1016.95 1016.65 1016.31 1015.99 1015.68 1015.38 1015.11 1014.87 1014.68 1014.46 1014.29 1014.03 1013.73 1013.48 1012.46 1009.00 1007.15 1007.36 1007.97 1008.33 1008.37 1008.62 1008.82 1009.06 1008.79 1008.40 1008.04 1008.33 1009.15 1009.46 1009.31 1009.10 1008.89 1009.32 1009.68 1009.82 1010.37 1010.68 1010.54 1010.43 1011.12 1011.65 1012.13
1017.56 1017.23 1016.85 1016.49 1016.15 1015.84 1015.54 1015.29 1015.02 1014.78 1014.57 1014.37 1014.19 1013.91 1013.63 1013.35 1011.09 1007.56 1007.06 1007.05 1007.79 1008.17 1008.59 1008.58 1008.60 1008.80 1008.87 1008.50 1007.73 1008.22 1008.98 1009.23 1009.30 1009.06 1009.01 1009.42 1009.67 1010.05 1010.00 1010.01 1010.20 1010.33 1010.83 1011.38 1011.98
1017.49 1017.15 1016.75 1016.36 1015.99 1015.67 1015.34 1015.04 1014.85 1014.66 1014.40 1014.23 1014.04 1013.77 1013.49 1012.55 1009.60 1007.13 1007.21 1007.48 1007.96 1008.24 1008.38 1008.53 1008.51 1008.67 1008.90 1008.21 1008.04 1008.64 1008.91 1009.24 1009.25 1009.04 1009.30 1009.46 1009.83 1010.06 1010.01 1010.15 1010.47 1010.50 1010.88 1011.50 1011.79
1017.39 1017.00 1016.57 1016.17 1015.81 1015.46 1015.18 1014.87 1014.57 1014.36 1014.17 1014.05 1013.92 1013.79 1013.25 1011.15 1007.15 1006.72 1007.15 1007.77 1007.85 1008.12 1007.89 1008.16 1008.24 1008.32 1008.46 1008.02 1008.05 1008.70 1008.86 1009.03 1008.63 1008.96 1009.37 1009.41 1010.28 1010.31 1009.91 1010.10 1010.64 1010.73 1010.66 1011.14 1011.59
1017.21 1016.83 1016.43 1016.00 1015.60 1015.24 1014.91 1014.63 1014.34 1014.11 1013.87 1013.78 1013.71 1013.47 1012.56 1008.98 1007.19 1007.23 1007.51 1007.63 1007.55 1007.73 1007.76 1007.52 1007.71 1008.34 1008.08 1008.03 1008.63 1009.12 1009.25 1008.83 1008.67 1008.71 1009.17 1009.57 1010.52 1010.15 1009.57 1009.91 1009.97 1010.28 1010.52 1010.26 1010.79
1017.02 1016.56 1016.12 1015.71 1015.33 1014.95 1014.56 1014.25 1013.95 1013.72 1013.54 1013.55 1013.54 1013.25 1011.31 1007.57 1007.12 1007.25 1007.32 1007.59 1007.54 1007.37 1007.49 1007.09 1007.25 1007.99 1007.84 1007.71 1008.04 1008.78 1009.53 1009.63 1008.54 1009.00 1008.96 1009.27 1009.41 1009.22 1009.36 1009.73 1010.00 1009.73 1010.10 1010.01 1010.35
1016.83 1016.40 1015.97 1015.51 1015.04 1014.61 1014.14 1013.65 1013.31 1013.24 1013.27 1013.35 1013.40 1012.75 1010.22 1007.14 1007.11 1006.41 1006.85 1007.28 1007.24 1007.21 1007.06 1006.82 1007.36 1007.91 1007.84 1008.55 1009.05 1009.09 1009.49 1009.21 1008.49 1008.06 1008.51 1008.94 1008.91 1008.39 1009.10 1010.41 1010.12 1009.87 1009.83 1009.46 1010.15
1016.62 1016.15 1015.75 1015.37 1014.94 1014.41 1013.64 1013.07 1012.80 1012.96 1013.22 1013.12 1012.48 1012.28 1009.05 1006.89 1005.92 1005.67 1006.13 1006.49 1007.19 1007.24 1007.69 1007.66 1008.03 1008.40 1008.87 1009.52 1009.79 1009.21 1008.99 1008.37 1007.95 1007.80 1008.28 1008.32 1007.97 1008.26 1009.18 1008.48 1008.98 1009.64 1009.66 1009.92 1010.00
1016.43 1015.93 1015.49 1015.08 1014.74 1014.43 1013.55 1012.81 1013.11 1012.74 1012.24 1010.74 1009.80 1009.00 1007.43 1006.17 1005.46 1005.52 1005.46 1006.06 1006.73 1007.55 1008.15 1008.10 1008.85 1008.87 1008.50 1008.64 1008.40 1008.45 1008.34 1007.57 1006.49 1006.51 1007.32 1007.54 1007.59 1008.08 1008.61 1008.73 1009.34 1009.40 1009.44 1009.15 1009.55
1016.14 1015.67 1015.18 1014.79 1014.53 1014.40 1014.36 1013.14 1010.77 1010.06 1010.02 1008.73 1008.20 1007.60 1006.43 1006.40 1006.50 1005.59 1005.44 1006.48 1006.92 1007.70 1008.04 1008.72 1008.54 1007.85 1007.73 1007.66 1007.84 1007.66 1007.56 1006.40 1005.84 1005.50 1006.84 1006.91 1007.47 1008.06 1008.16 1008.42 1008.54 1008.69 1009.03 1009.00 1009.44
1015.76 1015.32 1014.85 1014.41 1014.07 1014.09 1013.24 1011.01 1008.87 1009.24 1009.41 1007.11 1006.54 1006.57 1005.88 1005.89 1005.81 1005.06 1005.49 1006.04 1006.86 1007.65 1008.07 1008.48 1007.18 1006.96 1007.49 1007.06 1007.00 1006.59 1006.48 1005.76 1005.57 1005.33 1006.14 1006.97 1008.27 1008.55 1008.89 1008.79 1008.39 1008.32 1008.36 1008.71 1008.55
1015.30 1014.86 1014.46 1013.94 1014.03 1012.96 1011.62 1008.86 1008.80 1009.51 1009.57 1006.71 1005.58 1004.52 1004.80 1005.11 1004.92 1003.80 1004.37 1005.48 1006.79 1007.21 1007.69 1007.76 1006.40 1006.81 1006.41 1006.33 1005.95 1005.95 1004.94 1005.25 1005.39 1006.04 1006.60 1006.69 1008.18 1008.74 1008.63 1008.18 1007.96 1007.86 1007.98 1007.89 1008.32
1014.92 1014.53 1014.28 1014.14 1013.88 1012.37 1009.24 1008.91 1008.92 1009.15 1008.76 1004.90 1004.46 1003.22 1003.66 1004.58 1004.02 1003.63 1003.93 1004.90 1005.89 1006.55 1007.38 1006.67 1006.35 1005.99 1005.75 1005.25 1004.75 1004.83 1004.38 1004.97 1005.43 1006.31 1007.06 1007.33 1008.09 1007.71 1008.35 1007.99 1006.94 1006.61 1007.03 1007.06 1007.37
1014.45 1014.07 1013.93 1013.93 1013.69 1010.49 1009.21 1008.80 1008.47 1009.41 1007.15 1004.35 1003.36 1003.48 1004.11 1004.38 1003.92 1003.67 1004.22 1004.60 1005.05 1006.17 1006.50 1006.34 1005.44 1005.32 1004.69 1004.26 1004.32 1004.40 1004.76 1005.47 1006.66 1007.51 1008.16 1007.51 1007.95 1007.20 1007.50 1005.82 1005.89 1005.77 1005.93 1005.92 1006.39
1013.62 1013.44 1013.58 1012.72 1011.03 1009.43 1009.05 1009.30 1009.89 1009.11 1006.04 1004.67 1004.02 1003.81 1004.02 1004.41 1004.26 1004.03 1004.47 1005.07 1005.67 1006.63 1006.87 1006.08 1005.04 1004.23 1004.20 1004.35 1003.78 1004.48 1006.12 1007.38 1008.41 1009.04 1008.78 1007.39 1007.53 1005.87 1004.54 1004.08 1004.08 1004.23 1004.62 1005.47 1006.31
1012.52 1012.48 1012.09 1011.13 1009.75 1009.94 1009.78 1010.39 1010.00 1007.94 1006.38 1004.91 1004.21 1003.86 1004.40 1004.37 1004.40 1004.17 1004.50 1005.08 1005.13 1005.64 1006.08 1006.08 1004.89 1003.66 1003.30 1003.67 1003.96 1004.75 1006.05 1007.80 1008.83 1009.76 1009.00 1007.71 1006.54 1004.43 1002.62 1002.22 1003.29 1003.89 1005.74 1005.73 1006.38
1011.48 1011.79 1011.58 1009.32 1009.48 1010.34 1010.77 1011.00 1009.62 1007.54 1006.16 1005.28 1004.48 1004.98 1005.29 1005.17 1005.14 1004.71 1004.62 1004.51 1004.27 1004.62 1005.48 1005.40 1004.38 1002.90 1003.06 1002.75 1003.62 1004.21 1005.47 1005.95 1008.22 1009.20 1009.11 1007.47 1005.56 1003.39 1002.58 1002.97 1003.45 1004.05 1004.94 1005.53 1005.91
1012.12 1011.45 1010.04 1008.02 1009.06 1009.98 1010.91 1010.82 1009.03 1007.01 1005.95 1005.36 1005.55 1005.61 1005.97 1005.79 1005.76 1005.51 1005.07 1004.81 1004.21 1004.04 1004.32 1004.54 1004.59 1003.19 1002.38 1002.50 1002.44 1003.07 1003.77 1006.20 1008.17 1009.15 1009.15 1007.62 1005.73 1004.03 1003.27 1003.67 1002.92 1003.66 1004.48 1004.52 1003.04
1012.15 1011.30 1008.51 1007.97 1009.13 1010.46 1011.12 1010.14 1008.24 1006.42 1005.54 1005.53 1005.82 1006.13 1006.48 1006.78 1006.68 1006.38 1006.02 1005.05 1004.58 1004.14 1004.00 1004.33 1004.73 1003.74 1003.10 1003.02 1003.01 1003.38 1004.22 1005.60 1007.09 1007.93 1008.36 1007.58 1006.10 1003.23 1002.57 1002.72 1003.00 1003.18 1003.50 1003.65 1002.67
1012.62 1011.47 1008.48 1008.46 1010.07 1010.71 1010.71 1009.23 1007.77 1006.53 1005.60 1005.64 1005.95 1006.60 1007.08 1007.47 1007.40 1007.09 1006.88 1006.26 1005.60 1005.44 1005.61 1005.48 1005.38 1004.94 1003.76 1002.87 1002.84 1002.82 1003.51 1004.95 1006.81 1007.55 1007.44 1006.44 1004.65 1002.37 1002.49 1002.75 1002.96 1002.94 1003.18 1002.91 1002.37
1013.75 1011.77 1008.87 1008.86 1010.50 1011.19 1010.26 1009.16 1008.12 1007.25 1006.88 1006.66 1006.87 1007.26 1007.67 1008.26 1008.32 1007.92 1007.63 1007.24 1006.92 1006.72 1007.30 1006.78 1006.64 1006.47 1005.16 1004.21 1003.40 1003.71 1004.11 1004.80 1005.81 1006.58 1006.82 1006.73 1004.53 1002.60 1002.53 1002.92 1002.76 1003.06 1002.96 1003.07 1002.93
1013.97 1012.87 1011.36 1010.95 1011.19 1011.41 1010.91 1009.83 1008.70 1008.08 1008.01 1007.94 1008.36 1008.05 1008.54 1008.96 1008.99 1008.96 1008.61 1008.11 1008.17 1007.88 1007.54 1007.25 1008.51 1008.90 1008.57 1007.43 1006.35 1005.21 1004.57 1004.56 1005.45 1006.50 1006.30 1005.62 1004.36 1003.21 1003.38 1002.95 1002.70 1002.58 1002.43 1002.73 1003.14
1014.43 1014.87 1014.29 1013.58 1012.59 1012.36 1011.46 1010.56 1009.84 1009.32 1009.08 1008.91 1009.03 1009.78 1010.17 1010.20 1009.98 1009.91 1009.55 1009.12 1008.66 1008.71 1009.08 1009.40 1009.81 1009.51 1009.09 1007.95 1006.66 1005.90 1005.24 1004.99 1005.07 1005.17 1005.53 1004.41 1003.92 1003.01 1002.30 1002.27 1001.77 1001.78 1002.40 1002.38 1002.80
1016.20 1016.23 1015.34 1014.75 1013.80 1012.93 1012.24 1011.45 1010.80 1010.25 1010.12 1010.29 1010.52 1010.38 1010.38 1010.79 1010.78 1010.63 1010.38 1010.49 1010.31 1009.39 1010.34 1010.64 1010.55 1010.04 1009.16 1007.97 1007.07 1005.65 1005.31 1004.81 1004.57 1004.36 1004.01 1003.76 1003.19 1002.14 1001.54 1002.43 1001.74 1001.28 1001.47 1001.83 1002.11
1017.24 1016.67 1016.46 1015.50 1014.78 1013.95 1013.42 1012.51 1012.02 1011.33 1010.99 1010.88 1010.83 1010.71 1010.64 1010.57 1010.21 1010.11 1010.42 1010.56 1010.68 1010.90 1011.00 1011.02 1010.98 1011.19 1009.86 1008.68 1007.54 1005.87 1004.98 1004.68 1004.51 1004.59 1004.59 1004.44 1003.58 1002.14 1001.64 1001.71 1001.97 1001.17 1001.28 1001.79 1001.88
Wind_Speed
11 11 11 11 11 12 12 12 12 12 12 13 13 13 11 12 15 3 6 10 8 7 2 6 4 5 2 4 5 3 5 3 2 3 3 3 2 1 10 9 5 1 10 11 13
12 12 12 11 12 13 12 13 13 13 12 12 12 13 11 12 3 7 11 12 10 10 4 5 8 7 5 7 4 4 4 6 5 4 4 2 5 4 5 8 7 12 14 15 15
13 13 13 12 13 13 13 13 13 13 12 12 12 11 10 8 4 9 3 19 8 12 3 4 4 2 4 5 3 7 3 5 1 4 6 4 7 4 8 2 7 20 17 13 13
13 13 13 14 14 14 14 13 13 13 12 11 10 10 9 2 2 3 7 12 9 5 2 3 2 4 4 6 1 6 3 0 1 3 4 3 4 2 3 5 13 15 13 12 11
14 14 14 14 15 14 14 14 13 13 12 10 8 8 2 1 10 3 8 9 7 3 5 3 5 1 3 7 5 6 3 2 5 10 1 6 4 4 2 4 10 11 13 12 11
14 14 14 15 15 15 14 14 15 13 11 8 6 4 0 3 6 8 9 7 5 4 6 5 6 3 8 3 4 5 6 5 4 3 3 6 2 2 6 5 7 9 7 11 14
15 14 14 14 16 16 15 15 14 12 9 5 4 3 1 15 4 7 2 4 6 5 6 5 5 4 7 7 15 9 1 5 4 5 2 7 2 9 7 7 7 9 11 17 16
16 16 15 16 17 16 16 15 15 11 5 3 3 2 9 6 5 8 6 6 6 7 6 10 5 5 2 4 4 4 4 4 3 6 5 7 9 12 7 12 11 11 7 11 13
16 16 16 16 16 16 16 19 12 5 4 5 2 2 12 11 5 11 9 9 6 6 7 10 1 4 7 4 7 2 2 7 5 11 4 8 8 8 9 3 9 8 6 15 8
17 16 15 15 15 15 21 11 2 3 2 5 5 4 6 5 4 6 9 11 5 4 6 3 5 2 4 6 6 6 5 2 6 8 11 9 15 4 13 15 16 6 6 4 6
17 16 16 15 13 11 11 3 4 2 2 11 9 6 5 5 2 6 7 3 3 4 6 6 1 7 14 10 13 8 8 10 7 9 12 16 15 9 15 13 9 8 9 11 6
18 17 16 15 12 11 2 2 8 5 8 16 15 11 11 6 5 5 8 6 3 6 1 5 7 13 12 12 10 8 9 7 5 8 12 7 16 6 18 12 13 12 12 15 14
18 17 16 18 17 2 4 10 3 9 3 9 10 8 7 9 8 12 15 8 5 4 5 8 16 7 9 15 14 16 6 6 7 1 7 3 3 1 2 5 6 7 10 13 19
19 17 15 20 3 2 5 7 5 6 5 9 4 8 6 8 7 7 12 10 4 11 7 8 17 10 12 9 7 5 6 6 4 4 3 4 6 5 6 12 7 9 12 13 14
19 16 12 7 5 2 7 8 3 6 4 2 3 3 7 10 3 2 9 5 10 10 7 11 8 10 7 9 3 11 7 6 3 1 3 5 3 5 3 11 17 14 12 14 16
18 15 11 3 2 10 10 9 5 7 5 4 6 8 7 3 4 1 5 2 7 5 4 12 7 6 8 10 5 5 2 7 6 4 3 7 6 6 8 20 7 9 13 12 16
20 11 4 4 5 4 6 6 6 3 7 5 2 5 7 7 6 6 7 7 8 4 6 7 14 8 5 8 15 4 8 5 5 6 7 7 2 10 10 13 12 16 13 14 10
22 9 8 6 5 7 5 6 2 5 3 4 4 5 4 3 6 6 5 6 9 4 4 6 14 6 3 10 13 6 10 8 5 3 8 2 7 9 15 13 6 10 11 6 6
20 1 2 6 7 3 7 4 6 4 3 7 8 6 3 4 2 4 8 8 10 15 13 7 12 17 5 9 11 6 4 9 6 1 2 3 8 9 5 4 6 12 7 6 4
3 2 4 3 8 5 6 4 5 5 4 4 4 5 5 7 7 7 3 4 7 5 3 5 10 9 18 3 2 9 4 1 2 3 5 5 7 6 6 7 9 12 11 9 11
2 4 5 8 5 6 3 6 6 10 1 2 1 2 4 6 5 5 4 6 15 5 4 5 7 8 3 3 8 2 2 1 5 6 7 2 8 7 11 6 12 13 20 17 14
2 2 3 5 4 1 2 5 6 6 3 5 5 4 3 3 5 5 4 2 15 10 5 1 3 4 8 9 7 7 8 3 6 7 4 6 9 8 12 13 16 18 18 13 6
2 3 3 6 2 4 7 5 3 11 12 6 5 5 5 5 6 5 8 11 16 12 5 6 4 5 10 9 6 5 3 3 3 3 7 5 9 2 5 8 8 16 15 9 6
3 4 6 5 1 3 5 5 7 8 8 7 4 7 8 7 3 4 8 8 13 10 13 7 4 4 3 7 5 7 8 5 6 3 3 6 7 7 5 8 9 9 10 6 10
5 1 1 4 5 6 3 5 5 8 6 9 7 8 5 5 8 6 4 9 10 8 8 4 2 3 5 9 7 6 7 9 6 6 4 10 6 9 9 15 18 13 6 4 9
4 4 6 4 5 6 8 5 6 4 5 5 4 6 5 2 3 4 3 4 6 7 3 4 4 5 6 6 8 16 5 7 8 9 5 6 6 2 8 3 7 15 12 8 7
4 4 4 5 6 5 5 5 7 4 5 4 4 5 6 9 9 5 4 5 7 5 4 3 2 3 6 3 10 12 1 4 3 7 7 7 12 9 5 10 17 10 6 6 8
Wind_Direction
358 354 350 345 340 337 332 330 329 329 328 327 330 329 326 322 307 165 246 221 192 198 236 295 265 253 273 256 210 133 67 229 281 292 234 228 145 8 54 70 47 329 123 129 127
354 349 347 342 337 333 330 327 325 325 328 328 329 329 326 331 315 258 228 228 238 157 211 243 297 344 318 283 254 102 146 191 184 266 206 143 108 356 71 81 72 92 113 129 136
350 347 343 339 335 331 327 325 324 324 325 326 328 326 321 325 327 248 230 213 180 172 247 330 292 275 271 237 208 182 119 196 356 174 134 120 127 220 150 68 177 151 161 158 152
347 343 340 337 333 329 326 323 321 320 319 320 323 321 319 281 242 288 337 196 159 190 311 287 313 336 303 307 155 98 38 38 330 350 118 149 111 141 185 200 172 165 166 166 166
343 339 334 334 331 329 327 323 319 316 311 311 316 318 311 3 252 220 104 115 126 190 223 241 292 28 260 287 81 92 133 79 304 354 18 124 160 197 252 197 177 156 169 186 193
338 335 330 330 330 328 327 321 319 316 308 298 299 307 200 256 248 177 140 146 163 189 254 180 236 202 273 248 134 158 147 168 161 351 238 135 148 100 243 193 198 187 195 202 203
335 331 328 326 328 327 324 318 315 314 310 287 261 243 247 233 49 73 118 207 172 182 248 235 237 41 292 4 135 165 41 291 165 140 241 114 113 236 215 185 235 222 226 194 195
330 329 327 327 327 324 317 312 307 299 288 245 207 241 248 245 258 259 191 274 257 213 228 272 283 277 258 306 18 168 56 15 284 140 237 149 259 237 198 170 225 245 205 194 198
330 328 327 325 324 321 316 310 298 290 205 161 133 153 266 308 183 230 173 218 220 248 258 259 337 237 353 34 349 354 238 213 286 171 218 173 255 234 160 151 236 241 273 170 178
329 327 325 322 322 323 319 293 243 338 178 199 256 4 275 243 216 190 177 195 182 226 323 341 37 313 1 74 247 269 260 249 216 197 214 204 245 215 154 194 204 195 135 142 181
328 325 322 320 322 332 346 8 28 2 232 200 193 226 267 235 312 198 212 189 122 125 196 253 107 237 243 216 241 255 267 269 212 179 188 218 232 203 182 196 218 168 175 164 225
325 323 320 317 316 325 299 200 219 153 288 229 232 241 262 72 322 272 120 150 154 223 219 357 245 242 248 261 248 255 241 283 232 178 182 215 241 184 183 195 206 196 187 184 195
323 321 319 322 316 268 210 225 226 39 324 284 199 218 224 144 223 246 162 179 183 226 227 188 246 261 226 264 271 272 260 281 268 274 185 117 333 344 284 283 223 220 189 191 189
320 320 321 324 300 309 244 243 247 143 39 276 200 253 180 158 285 190 178 143 192 205 237 235 264 245 269 244 210 237 242 232 297 80 211 136 279 241 221 245 233 233 206 202 202
317 316 318 335 299 227 236 7 42 63 19 230 188 153 145 154 228 244 173 87 182 213 134 246 283 291 278 253 277 240 233 253 262 233 31 327 92 264 72 251 236 234 201 205 200
317 313 318 141 228 244 307 306 59 50 266 290 145 169 116 222 256 65 138 88 187 196 226 239 241 226 237 284 239 273 338 40 42 84 360 249 150 273 189 226 236 232 204 204 191
317 300 272 292 225 342 303 40 54 135 302 348 250 161 184 188 250 199 164 163 179 180 264 279 266 270 258 302 297 136 59 353 347 358 231 311 162 238 236 237 202 220 199 208 194
318 291 213 226 257 4 35 54 111 251 333 326 352 139 182 184 276 254 161 202 235 181 178 208 293 182 212 194 233 217 149 159 216 209 270 315 258 256 229 212 168 218 82 86 228
319 102 196 248 213 132 70 70 217 233 326 340 2 70 303 31 281 276 231 218 212 195 209 173 254 261 215 244 140 229 170 186 132 168 17 240 284 299 81 31 208 195 129 107 205
357 349 258 228 132 73 74 238 255 250 293 12 44 49 339 341 20 31 321 306 293 245 226 268 273 243 276 127 295 162 172 112 4 157 275 291 274 239 88 171 179 178 171 171 205
33 31 267 122 74 51 146 237 276 282 246 89 270 287 317 354 332 340 329 286 358 301 291 195 184 269 28 166 217 352 257 113 127 142 176 228 271 225 195 163 144 173 176 197 242
17 36 251 93 55 186 197 215 286 314 360 56 100 35 80 320 340 39 356 319 359 2 3 330 203 239 211 271 220 181 204 136 126 271 233 162 264 253 174 191 169 176 184 209 242
58 263 334 87 64 333 301 311 342 4 7 1 25 54 7 51 19 352 6 38 18 27 24 321 350 357 348 347 0 78 94 125 142 103 225 140 266 340 139 166 223 177 202 189 142
62 26 336 30 167 45 339 308 331 18 52 33 41 49 30 14 38 335 3 357 2 20 21 49 60 119 207 265 267 304 330 335 114 107 253 211 280 302 233 191 212 220 205 181 164
26 347 144 319 326 328 281 336 7 7 19 21 20 44 50 350 346 358 356 335 348 42 19 68 298 29 281 276 325 327 344 331 317 235 175 282 200 265 241 200 202 200 182 238 184
56 32 345 286 304 337 1 341 19 353 34 3 52 346 24 352 228 279 317 17 246 324 49 342 281 349 305 307 329 313 275 265 273 288 285 310 290 288 323 280 207 201 182 193 196
322 328 104 287 341 29 344 358 35 8 337 23 327 337 338 314 288 232 202 207 226 242 295 220 181 350 258 343 330 297 149 94 344 21 331 9 293 291 281 194 225 207 189 175 163